Location: Ebendorf
(52.1827°N, 11.5706°E)
Time: 09:59:36
(UTC+00:00)

Cosmos 1420 Rocket - Pass Details

Date: 15 May 2021
Orbit: 754 x 781 km, 74.0° (Epoch: 20 June)

Event Time Altitude Azimuth Distance (km) Brightness Sun altitude
Exits shadow 02:30:37 - 208° (SSW) 2,582 6.1 -6.7°
Reaches altitude 10° 02:31:23 10° 209° (SSW) 2,283 5.9 -6.6°
Maximum altitude 02:36:34 79° 296° (WNW) 776 4.0 -6.0°
Drops below altitude 10° 02:41:47 10° 24° (NNE) 2,293 7.7 -5.4°
Sets 02:44:09 0° 25° (NNE) 3,222 8.6 -5.1°
